Forrest, Western Australia

10:58 PM AWST on September 29, 2016 (GMT +0800)
Forrest

Weather History for YFRT - October, 2013

Change the Weather History Date:

Sunday, October 6, 2013

  Actual Average Record
Temperature  
Mean Temperature 72 °F -  
Max Temperature 92 °F - - ()
Min Temperature 53 °F - - ()
Cooling Degree Days 8    
Growing Degree Days 22 (Base 50)    
Moisture  
Dew Point 48 °F    
Average Humidity 51    
Maximum Humidity 100    
Minimum Humidity 9    
Precipitation  
Precipitation 0.00 in - - ()
Sea Level Pressure  
Sea Level Pressure 29.88 in    
Wind  
Wind Speed 10 mph ()    
Max Wind Speed 20 mph    
Max Gust Speed -    
T = Trace of Precipitation, MM = Missing Value Source: Averaged Metar Reports

Daily Weather History Graph

Daily Weather History Graph

Search for Another Location

Airport or City:

Trip Planner

Search our weather history database for the weather conditions in past years. The results will help you decide how hot, cold, wet, or windy it might be!

Date:

Astronomy

Oct. 06, 2013 Rise Set
Actual Time 4:59 AM AWST 5:32 PM AWST
Civil Twilight 4:35 AM AWST 5:56 PM AWST
Nautical Twilight 4:07 AM AWST 6:25 PM AWST
Astronomical Twilight 3:38 AM AWST 6:54 PM AWST
Moon 5:30 AM AWST (10/6) 6:52 PM AWST (10/6)
Length of Visible Light 13h 20m
Length of Day
12h 32m
New Moon, 2% of the Moon is Illuminated
Oct 6
New Moon
Oct 12
First Quarter
Oct 19
Full
Oct 27
Last Quarter
Nov 3
New

Hourly Weather History & Observations

Time (AWST) Temp. Dew Point Humidity Pressure Visibility Wind Dir Wind Speed Gust Speed Precip Events Conditions
12:00 AM 58 °F 54 °F 82% 29.91 in - East 9.2 mph - -  
12:00 AM 57.2 °F 53.6 °F 88% 29.92 in - East 9.2 mph - N/A   Unknown
1:00 AM 57.2 °F 55.4 °F 94% 29.89 in - East 9.2 mph - N/A   Unknown
2:00 AM 56 °F 55 °F 96% 29.88 in - ENE 10.4 mph - -  
2:00 AM 55.4 °F 55.4 °F 100% 29.89 in - ENE 10.4 mph - N/A   Unknown
3:00 AM 54 °F 54 °F 99% 29.90 in - East 8.1 mph - -  
3:00 AM 53.6 °F 53.6 °F 100% 29.89 in - East 8.1 mph - N/A   Unknown
4:00 AM 53.6 °F 53.6 °F 100% 29.89 in - NE 6.9 mph - N/A   Unknown
5:00 AM 53 °F 53 °F 100% 29.90 in - NE 8.1 mph - -  
5:00 AM 53.6 °F 53.6 °F 100% 29.89 in - NE 8.1 mph - N/A   Unknown
6:00 AM 58 °F 58 °F 98% 29.91 in - NE 10.4 mph - -  
6:00 AM 59.0 °F 57.2 °F 94% 29.92 in - NE 10.4 mph - N/A   Unknown
7:00 AM 66.2 °F 50.0 °F 56% 29.92 in - NNE 17.3 mph - N/A   Unknown
8:00 AM 72 °F 50 °F 34% 29.92 in - NE 15.0 mph - -  
8:00 AM 71.6 °F 50.0 °F 46% 29.92 in - NE 15.0 mph - N/A   Unknown
9:00 AM 78 °F 48 °F 25% 29.91 in - NNE 11.5 mph - -  
9:00 AM 78.8 °F 48.2 °F 34% 29.92 in - NNE 11.5 mph - N/A   Unknown
10:00 AM 84.2 °F 46.4 °F 27% 29.89 in - NE 10.4 mph - N/A   Unknown
11:00 AM 86 °F 43 °F 13% 29.87 in - NE 9.2 mph - -  
11:00 AM 86.0 °F 42.8 °F 22% 29.86 in - NE 9.2 mph - N/A   Unknown
12:00 PM 87 °F 42 °F 12% 29.86 in - ENE 4.6 mph - -  
12:00 PM 86.0 °F 42.8 °F 22% 29.86 in - ENE 4.6 mph - N/A   Unknown
1:00 PM 89.6 °F 39.2 °F 17% 29.83 in - ESE 4.6 mph - N/A   Unknown
2:00 PM 91 °F 39 °F 9% 29.79 in - North 12.7 mph - -  
2:00 PM 91.4 °F 39.2 °F 16% 29.80 in - North 12.7 mph - N/A   Unknown
3:00 PM 90 °F 39 °F 9% 29.79 in - NW 8.1 mph - -  
3:00 PM 89.6 °F 39.2 °F 17% 29.80 in - NW 8.1 mph - N/A   Unknown
4:00 PM 89.6 °F 39.2 °F 17% 29.80 in - West 9.2 mph - N/A   Unknown
5:00 PM 82 °F 44 °F 16% 29.82 in - SE 18.4 mph - -  
5:00 PM 82.4 °F 42.8 °F 25% 29.83 in - SE 18.4 mph - N/A   Unknown
6:00 PM 74 °F 49 °F 30% 29.86 in - SSE 16.1 mph - -  
6:00 PM 73.4 °F 48.2 °F 41% 29.86 in - SSE 16.1 mph - N/A   Unknown
7:00 PM 71.6 °F 46.4 °F 41% 29.86 in - East 19.6 mph - N/A   Unknown
8:00 PM 68 °F 46 °F 33% 29.91 in - ESE 13.8 mph - -  
8:00 PM 68.0 °F 46.4 °F 46% 29.92 in - ESE 13.8 mph - N/A   Unknown
9:00 PM 64 °F 49 °F 48% 29.91 in - East 16.1 mph - -  
9:00 PM 64.4 °F 48.2 °F 56% 29.92 in - East 16.1 mph - N/A   Unknown
10:00 PM 62.6 °F 50.0 °F 63% 29.92 in - ESE 12.7 mph - N/A   Unknown
11:00 PM 61 °F 50 °F 57% 29.92 in - East 10.4 mph - -  
11:00 PM 60.8 °F 50.0 °F 68% 29.92 in - East 10.4 mph - N/A   Unknown